Trenton, NJ

7:57 PM EDT on May 23, 2018 (GMT -0400)
Trenton Mercer

Weather History for KTTN - January, 2013

Change the Weather History Date:

Friday, January 18, 2013

  Actual Average Record
Temperature  
Mean Temperature 31 °F 31 °F  
Max Temperature 36 °F 39 °F 64 °F (2006)
Min Temperature 25 °F 23 °F -4 °F (1893)
Degree Days  
Heating Degree Days 34 34  
Month to date heating degree days 493 611  
Since 1 July heating degree days 2251 2506  
Cooling Degree Days 0 0  
Month to date cooling degree days 0 0  
Year to date cooling degree days 0 0  
Moisture  
Dew Point 13 °F    
Average Humidity 51    
Maximum Humidity 69    
Minimum Humidity 32    
Precipitation  
Precipitation T in 0.09 in 1.97 in (2015)
Month to date precipitation 1.63 1.89  
Year to date precipitation 1.63 1.89  
Sea Level Pressure  
Sea Level Pressure 30.33 in    
Wind  
Wind Speed 7 mph (NNW)    
Max Wind Speed 24 mph    
Max Gust Speed 33 mph    
Visibility 10 miles    
Events      
T = Trace of Precipitation, MM = Missing Value Source: NWS Daily Summary

Daily Weather History Graph

Daily Weather History Graph

Search for Another Location

Airport or City:

Astronomy

Jan. 18, 2013 Rise Set
Actual Time 7:18 AM EST 5:01 PM EST
Civil Twilight 6:48 AM EST 5:31 PM EST
Nautical Twilight 6:15 AM EST 6:04 PM EST
Astronomical Twilight 5:43 AM EST 6:36 PM EST
Moon 10:54 AM EST (1/18) No Moon Set
Length of Visible Light 10h 42m
Length of Day
9h 42m
Waxing Crescent, 47% of the Moon is Illuminated
Jan 18
Waxing Crescent
Jan 18
First Quarter
Jan 26
Full
Feb 3
Last Quarter
Feb 10
New

Hourly Weather History & Observations

Time (EST) Temp. Windchill Dew Point Humidity Pressure Visibility Wind Dir Wind Speed Gust Speed Precip Events Conditions
12:53 AM 35.1 °F - 25.0 °F 67% 30.03 in 10.0 mi Calm Calm - N/A   Mostly Cloudy
1:53 AM 35.1 °F - 24.1 °F 64% 30.06 in 10.0 mi Calm Calm - N/A   Partly Cloudy
2:53 AM 34.0 °F - 25.0 °F 70% 30.06 in 10.0 mi Calm Calm - N/A   Overcast
3:53 AM 34.0 °F 28.8 °F 25.0 °F 70% 30.07 in 10.0 mi North 5.8 mph - 0.00 in   Scattered Clouds
4:53 AM 33.1 °F 27.7 °F 24.1 °F 70% 30.10 in 10.0 mi NNE 5.8 mph - N/A   Overcast
5:53 AM 33.1 °F 22.6 °F 21.9 °F 64% 30.16 in 10.0 mi NNE 16.1 mph 20.7 mph N/A   Overcast
6:53 AM 30.0 °F 17.9 °F 16.0 °F 56% 30.24 in 10.0 mi North 18.4 mph 27.6 mph N/A   Mostly Cloudy
7:53 AM 28.0 °F 16.1 °F 10.0 °F 47% 30.30 in 10.0 mi North 16.1 mph 23.0 mph N/A   Clear
8:53 AM 28.0 °F 17.0 °F 7.0 °F 41% 30.37 in 10.0 mi NNW 13.8 mph 21.9 mph N/A   Clear
9:53 AM 28.0 °F 15.7 °F 5.0 °F 38% 30.42 in 10.0 mi North 17.3 mph 27.6 mph N/A   Clear
10:53 AM 27.0 °F 14.7 °F 8.1 °F 45% 30.43 in 10.0 mi North 16.1 mph 24.2 mph N/A   Partly Cloudy
11:53 AM 30.0 °F 18.7 °F 8.1 °F 40% 30.43 in 10.0 mi North 16.1 mph 19.6 mph N/A   Clear
12:53 PM 30.0 °F 22.4 °F 8.1 °F 40% 30.41 in 10.0 mi NNW 8.1 mph 17.3 mph N/A   Clear
1:53 PM 30.0 °F 22.4 °F 6.1 °F 36% 30.42 in 10.0 mi NNE 8.1 mph 18.4 mph N/A   Clear
2:53 PM 30.0 °F 26.5 °F 5.0 °F 35% 30.43 in 10.0 mi NNW 3.5 mph - N/A   Clear
3:53 PM 30.0 °F 23.2 °F 5.0 °F 35% 30.44 in 10.0 mi NNW 6.9 mph - N/A   Clear
4:53 PM 28.9 °F 22.8 °F 6.1 °F 38% 30.45 in 10.0 mi NW 5.8 mph - N/A   Clear
5:53 PM 28.9 °F - 7.0 °F 40% 30.46 in 10.0 mi Calm Calm - N/A   Clear
6:53 PM 28.0 °F - 8.1 °F 43% 30.48 in 10.0 mi Calm Calm - N/A   Clear
7:53 PM 27.0 °F - 10.9 °F 51% 30.47 in 10.0 mi Calm Calm - N/A   Clear
8:53 PM 25.0 °F 19.3 °F 12.0 °F 58% 30.45 in 10.0 mi SSW 4.6 mph - N/A   Clear
10:53 PM 26.1 °F 17.6 °F 14.0 °F 60% 30.42 in 10.0 mi South 8.1 mph - N/A   Clear
11:53 PM 26.1 °F 17.6 °F 14.0 °F 60% 30.40 in 10.0 mi SW 8.1 mph - N/A   Clear